Location: Axtheid
(49.6213°N, 11.8205°E)
Time: 03:58:07
(UTC+00:00)

FengYun 1-2 T - Pass Details

Date: 24 January 2021
Orbit: 847 x 881 km, 98.7° (Epoch: 26 February)

Event Time Altitude Azimuth Distance (km) Brightness Sun altitude
Rises 16:22:10 0° 154° (SSE) 3,430 7.3 -4.8°
Reaches altitude 10° 16:24:32 10° 151° (SSE) 2,502 6.6 -5.1°
Maximum altitude 16:30:03 67° 71° (ENE) 944 4.3 -5.9°
Drops below altitude 10° 16:35:39 10° 350° (N) 2,540 6.6 -6.8°
Sets 16:38:04 0° 348° (NNW) 3,486 7.3 -7.1°
